Humidity-temperature Sensor

Selected Measurement Type: Air Temperature

 
Air Temperature [°C]     6 entries per hour
Showing data from 4/27/2015 (00:00:00 Z) to 4/26/2015 (00:01:00 Z)
Previous Next [ Day | 3-Days | 7-Days ]
First Last
Prev [ Day | 3-Days | 7-Days ] Next
First Last

Start Time:     :
End Time:     :     
Time (in GMT) :00 :50 :40 :30 :20 :10
Previous Next [ Day | 3-Days | 7-Days ]
First Last
Prev [ Day | 3-Days | 7-Days ] Next
First Last


123 => good data
MM => data is determined as missing
-- => data not received/configured
Back to Top Back to Top
4/27/2015 00:00 to 23:10 27.75 27.57 27.57 27.44 27.72 27.70
4/26/2015 23:00 to 22:10 27.65 27.77 27.75 28.00 27.87 27.94
4/26/2015 22:00 to 21:10 27.84 27.95 27.67 27.71 27.90 27.86
4/26/2015 21:00 to 20:10 27.80 27.86 27.71 27.86 27.86 27.97
4/26/2015 20:00 to 19:10 27.91 27.82 27.96 27.87 27.88 27.98
4/26/2015 19:00 to 18:10 27.81 27.92 27.96 27.98 28.06 27.78
4/26/2015 18:00 to 17:10 27.72 27.94 27.73 27.85 27.86 27.87
4/26/2015 17:00 to 16:10 27.78 27.83 27.96 27.99 27.91 28.13
4/26/2015 16:00 to 15:10 27.87 27.80 27.84 27.92 27.88 27.86
4/26/2015 15:00 to 14:10 27.85 27.91 27.73 27.73 26.52 27.24
4/26/2015 14:00 to 13:10 27.64 27.61 27.46 27.60 27.50 27.65
4/26/2015 13:00 to 12:10 27.60 27.56 27.57 27.43 27.49 27.35
4/26/2015 12:00 to 11:10 27.43 27.34 27.39 27.37 27.29 27.52
4/26/2015 11:00 to 10:10 27.27 27.33 27.33 27.25 27.34 27.50
4/26/2015 10:00 to 9:10 27.43 27.50 27.47 27.30 27.33 27.31
4/26/2015 09:00 to 8:10 27.42 27.48 27.72 27.47 27.47 27.55
4/26/2015 08:00 to 7:10 -- -- -- -- -- --
4/26/2015 07:00 to 6:10 27.79 27.68 27.66 27.65 27.80 27.55
4/26/2015 06:00 to 5:10 -- -- -- -- -- --
4/26/2015 05:00 to 4:10 27.61 27.76 27.78 27.55 27.58 27.67
4/26/2015 04:00 to 3:10 27.73 27.88 27.75 27.68 27.78 27.85
4/26/2015 03:00 to 2:10 27.80 27.88 27.73 27.75 27.82 27.50
4/26/2015 02:00 to 1:10 27.40 27.58 27.90 27.77 27.77 27.83
4/26/2015 01:00 to 0:10 27.86 27.74 27.80 27.76 27.73 27.76